カタログに戻る

STARLINK-36279

運用中通信VLEO
NORAD 67193·PAYLOAD·🇺🇸 United States

打ち上げ Dec 17, 2025 から Vandenberg Space Force Base

Loading…

次のパス (今後24時間)

TLE

最新Source: CelesTrak SupGP

元期: Sep 14, 2026, 23:14 UTC

1 67193C 25304B   26257.96854167 -.00018236  00000+0 -15282-2 0  2576
2 67193  70.0017  57.1990 0002924 270.4079 223.6126 14.98342289    13

AllMySatでSTARLINK-36279をリアルタイム追跡

Download on the App Store